Location: Newark
(54.4000°N, 32.4500°E)
Time: 15:15:28
(UTC+00:00)

ISS - Pass Details

Date: 25 January 2020
Orbit: 416 x 422 km, 51.6° (Epoch: 17 February)

Event Time Altitude Azimuth Distance (km) Brightness Sun altitude
Rises 15:02:00 0° 204° (SSW) 2,369 0.9 -7.0°
Reaches altitude 10° 15:04:48 10° 178° (S) 1,507 -0.7 -7.3°
Maximum altitude 15:06:42 14° 144° (SE) 1,272 -1.4 -7.6°
Drops below altitude 10° 15:08:36 10° 110° (ESE) 1,510 -1.4 -7.8°
Enters shadow 15:09:24 - 100° (E) 1,718 -1.2 -7.9°
